Other Public Products
Issued by NWS Grand Forks, ND

Home | Current Version | Previous Version | Graphics & Text | Print | Product List | Glossary On
Versions: 1 2 3 4 5 6 7 8 9 10 11 12 13 14 15 16 17 18 19 20 21 22 23 24 25 26 27 28 29 30 31 32 33 34 35 36 37 38 39 40 41 42 43 44 45 46 47 48 49 50
000
FPUS83 KFGF 240010
OPUFGF
PRAIRIE TO PINES WEATHER ROUNDUP
NATIONAL WEATHER SERVICE EASTERN NORTH DAKOTA/GRAND FORKS ND
700 PM CDT SUN JUL 23 2017

 **SATELLITE DATA USED TO AUGMENT SKY COVER AT AUTOMATED STATIONS**
 *****  WEATHER ACROSS EASTERN NORTH DAKOTA  *****

CITY           SKY/WX    TMP DP  RH WIND       PRES   REMARKS
GRAND FORKS    FAIR      79  63  57 SW5       29.96F
6HR MIN TEMP:  71; 6HR MAX TEMP:  81;

GRAND FORKS AF FAIR      76  61  59 S6        29.98F
GRAND CITY NWS NOT AVBL
BUXTON         NOT AVBL
DEVILS LAKE    FAIR      76  56  49 SE5       29.99F
6HR MIN TEMP:  72; 6HR MAX TEMP:  77;

FARGO          FAIR      78  62  57 N3        29.97F
6HR MIN TEMP:  70; 6HR MAX TEMP:  79;

WAHPETON ARPT  FAIR      73  57  56 NE3       29.99S
$$

 *****  WEATHER ACROSS CENTRAL AND WESTERN NORTH DAKOTA  *****

CITY           SKY/WX    TMP DP  RH WIND       PRES   REMARKS
JAMESTOWN      FAIR      78  59  51 NE6       29.98F
6HR MIN TEMP:  73; 6HR MAX TEMP:  81;

BISMARCK       FAIR      84  55  36 E8        29.96F
6HR MIN TEMP:  78; 6HR MAX TEMP:  85;

MINOT          FAIR      86  51  29 S8        29.93F
6HR MIN TEMP:  79; 6HR MAX TEMP:  87;

MINOT AFB      FAIR      84  53  34 SE9       29.92F
6HR MIN TEMP:  76; 6HR MAX TEMP:  84; 6HR PCP: TRACE;

GARRISON         N/A     83  51  33 SE9       29.95F
6HR MIN TEMP:  77; 6HR MAX TEMP:  85;

WILLISTON      FAIR      93  48  21 SE8       29.88F
6HR MIN TEMP:  84; 6HR MAX TEMP:  94;

DICKINSON      FAIR      88  52  29 E8        29.93F
6HR MIN TEMP:  82; 6HR MAX TEMP:  89;

HETTINGER      FAIR      89  48  24 SE7       29.97F
6HR MIN TEMP:  84; 6HR MAX TEMP:  91;

$$

 *****  OTHER OBSERVATIONS NORTHEAST NORTH DAKOTA  *****

CITY           SKY/WX    TMP DP  RH WIND       PRES   REMARKS
WALHALLA       NOT AVBL
LANGDON        FAIR      77  63  61 CALM      30.00S
CAVALIER       FAIR      77  61  57 CALM      29.96F
GRAFTON        FAIR      77  61  57 CALM      29.98F
CANDO          NOT AVBL
FORT TOTTEN      N/A     79  59  50 NE3       29.95S
ROLLA            N/A     75  57  53 S6        29.99F
RUGBY          NOT AVBL
 ***** THE ABOVE OBSERVATIONS ARE NON NWS ARE NOT QUALITY
        CONTROLLED AND MAY MIS-REPORT RAIN FOR SNOW...
$$

 *****  OTHER OBSERVATIONS SOUTHEAST NORTH DAKOTA *****

CITY           SKY/WX    TMP DP  RH WIND       PRES   REMARKS
COOPERSTOWN    FAIR      77  63  61 E6        29.99F
VALLEY CITY    FAIR      77  61  57 NE7       30.00F
OAKES          NOT AVBL
GWINNER        CLEAR     75  61  60 E5        29.99F
SHEYENNE NWR     N/A     78  63  58 E5        29.95S
BUFFALO        NOT AVBL
WYNDMERE       NOT AVBL
 ***** THE ABOVE OBSERVATIONS ARE NON NWS ARE NOT QUALITY
       CONTROLLED AND MAY MIS-REPORT RAIN FOR SNOW...
$$

  *****  WEATHER ACROSS NORTHERN MINNESOTA  *****

CITY           SKY/WX    TMP DP  RH WIND       PRES   REMARKS
FLAG ISLAND    FAIR      75  55  50 CALM      29.97F
WARROAD        FAIR      75  63  64 E5        29.99S
ROSEAU         FAIR      77  63  61 CALM      29.98S
HALLOCK        FAIR      79  61  53 S3        29.96S
THF RVR FALLS  FAIR      75  60  59 SE8       29.99F
6HR MIN TEMP:  72; 6HR MAX TEMP:  77;

HALSTAD        NOT AVBL
FOSSTON        FAIR      79  66  65 CALM      30.00F
BAUDETTE       FAIR      77  59  53 N6        29.98F
6HR MIN TEMP:  74; 6HR MAX TEMP:  80;

WASKISH        FAIR      75  63  64 W8        29.99S
CROOKSTON      FAIR      75  63  64 CALM      29.98S
$$
  *****  WEATHER ACROSS CENTRAL AND WEST MINNESOTA  *****

CITY           SKY/WX    TMP DP  RH WIND       PRES   REMARKS
BEMIDJI        FAIR      72  57  58 S3        30.01S
PARK RAPIDS    FAIR      73  55  53 NE7       30.01S
6HR MIN TEMP:  71; 6HR MAX TEMP:  76;

WADENA         FAIR      73  59  60 E7        29.99S
DETROIT LAKES  FAIR      73  59  60 CALM      30.01S
MOORHEAD       FAIR      75  61  60 CALM      29.98F
FERGUS FALLS   FAIR      75  61  60 N3        29.98S
ELBOW LAKE     FAIR      73  61  67 N5        30.01R
6HR MIN TEMP:  68; 6HR MAX TEMP:  73;

MORRIS MN      FAIR      75  59  57 N6        29.98F
STAPLES        FAIR      73  55  53 NE7       30.00S
WHEATON        FAIR      73  57  56 NE5       30.01S
$$
  *****  WEATHER ELSEWHERE ACROSS MINNESOTA  *****

CITY           SKY/WX    TMP DP  RH WIND       PRES   REMARKS
DULUTH         FAIR      63  59  87 CALM      30.02S
6HR MIN TEMP:  59; 6HR MAX TEMP:  65; 6HR PCP: TRACE;

INTRNTL FALLS  FAIR      77  52  41 NE3       29.99S
6HR MIN TEMP:  74; 6HR MAX TEMP:  78;

ELY            FAIR      72  50  46 CALM      30.01R
CLOQUET        FAIR      66  57  72 SE5       30.02S
BRAINERD       FAIR      73  57  57 NE5       29.99F
6HR MIN TEMP:  68; 6HR MAX TEMP:  74;

HIBBING        PTSUNNY   71  58  63 VRB3      30.00S
6HR MIN TEMP:  66; 6HR MAX TEMP:  72;

ALEXANDRIA     PTSUNNY   75  60  59 N5        30.01S
6HR MIN TEMP:  71; 6HR MAX TEMP:  76;

SAINT CLOUD    FAIR      75  60  59 NE7       29.98S
6HR MIN TEMP:  71; 6HR MAX TEMP:  76;

MINNEAPOLIS    FAIR      74  57  55 NE16      29.97R
6HR MIN TEMP:  73; 6HR MAX TEMP:  79;

$$

  *****  WEATHER ACROSS SOUTH DAKOTA  *****

CITY           SKY/WX    TMP DP  RH WIND       PRES   REMARKS
SIOUX FALLS    FAIR      78  62  57 N9        29.99S
6HR MIN TEMP:  78; 6HR MAX TEMP:  81;

BROOKINGS      NOT AVBL
WATERTOWN      FAIR      74  60  61 NE8       30.00S
6HR MIN TEMP:  73; 6HR MAX TEMP:  78;

HURON          FAIR      79  59  50 NE7       29.98F
6HR MIN TEMP:  76; 6HR MAX TEMP:  81;

SISSETON         N/A     74  61  63 E8        29.99S
ABERDEEN       FAIR      78  60  53 E7        29.99F
6HR MIN TEMP:  77; 6HR MAX TEMP:  81;

MITCHELL       FAIR      82  60  47 N8        29.99S
PIERRE         FAIR      88  50  27 CALM      29.95F
6HR MIN TEMP:  82; 6HR MAX TEMP:  90;

MOBRIDGE       FAIR      83  58  42 NE6       29.96S
RAPID CITY     FAIR      91  46  21 SE12      29.98F
6HR MIN TEMP:  85; 6HR MAX TEMP:  93;

$$

  *****  SOME WEATHER IN NEARBY STATES *****

CITY           SKY/WX    TMP DP  RH WIND       PRES   REMARKS
GLASGOW MT     NOT AVBL
GREAT FALLS MT FAIR      97  32  10 W13G25    29.83F HX  91
6HR MIN TEMP:  86; 6HR MAX TEMP:  97;

CHEYENNE WY    FAIR      84  41  21 S14       30.17F
6HR MIN TEMP:  81; 6HR MAX TEMP:  90;

SCOTTSBLUFF NE FAIR      93  53  25 E10       30.00F HX  90
6HR MIN TEMP:  87; 6HR MAX TEMP:  97;

OMAHA NE       FAIR      86  58  38 N10       29.93S
6HR MIN TEMP:  86; 6HR MAX TEMP:  92;

DES MOINES IA  FAIR      84  60  44 N13       29.90S
6HR MIN TEMP:  84; 6HR MAX TEMP:  90;

DAVENPORT IA   FAIR      79  63  57 NW9       29.88R
6HR MIN TEMP:  79; 6HR MAX TEMP:  87;

CHICAGO IL     PTSUNNY   73  63  70 CALM      29.81R
6HR MIN TEMP:  70; 6HR MAX TEMP:  90; 6HR PCP:  0.21;

EAU CLAIRE WI  CLOUDY    68  58  70 N6        29.95R
6HR MIN TEMP:  68; 6HR MAX TEMP:  75;

LA CROSSE WI   FAIR      76  60  57 N14       29.90R
6HR MIN TEMP:  76; 6HR MAX TEMP:  83;

$$

  *****  SOME NATIONAL WEATHER *****

CITY           SKY/WX    TMP DP  RH WIND       PRES   REMARKS
LA GUARDIA NY  MOCLDY    78  67  68 SE12      29.84R
6HR MIN TEMP:  76; 6HR MAX TEMP:  79; 6HR PCP: TRACE;



USA.gov is the U.S. government's official web portal to all federal, state and local government web resources and services.